Weather History for Meadville, PA

Change the Weather History Date:

Thursday, November 14, 2013

  Actual Average Record
Temperature  
Mean Temperature 36 °F -  
Max Temperature 46 °F 45 °F 70 °F (1989)
Min Temperature 27 °F 29 °F 17 °F (1986)
Degree Days  
Heating Degree Days 28    
Moisture  
Dew Point 18 °F    
Average Humidity 49    
Maximum Humidity 69    
Minimum Humidity 31    
Precipitation  
Precipitation 0.00 in - - ()
Sea Level Pressure  
Sea Level Pressure 30.20 in    
Wind  
Wind Speed 12 mph (SSW)    
Max Wind Speed 17 mph    
Max Gust Speed 24 mph    
Visibility 10 miles    
Events      
Averages and records for this station are not official NWS values.
T = Trace of Precipitation, MM = Missing Value Source: NWS Daily Summary

Daily Weather History Graph

Daily Weather History Graph

Search for Another Location

Airport:

Trip Planner

Search our weather history database for the weather conditions in past years. The results will help you decide how hot, cold, wet, or windy it might be!

Date:

Astronomy

Nov. 14, 2013 Rise Set
Actual Time 7:08 AM EST 5:01 PM EST
Civil Twilight 6:39 AM EST 5:31 PM EST
Nautical Twilight 6:05 AM EST 6:04 PM EST
Astronomical Twilight 5:32 AM EST 6:37 PM EST
Moon 3:23 PM EST (11/14) 4:00 AM EST (11/14)
Length of Visible Light 10h 51m
Length of Day
9h 52m
Waxing Gibbous, 91% of the Moon is Illuminated
Nov 14
Waxing Gibbous
Nov 17
Full
Nov 25
Last Quarter
Dec 2
New
Dec 9
First Quarter

Hourly Weather History & Observations

Time (EST) Temp. Windchill Dew Point Humidity Pressure Visibility Wind Dir Wind Speed Gust Speed Precip Events Conditions
12:53 AM 30.0 °F 21.1 °F 16.0 °F 56% 30.26 in 10.0 mi SSW 10.4 mph 20.7 mph N/A   Clear
1:53 AM 28.9 °F 18.2 °F 16.0 °F 58% 30.25 in 10.0 mi SSW 13.8 mph - N/A   Clear
2:53 AM 28.9 °F 19.2 °F 16.0 °F 58% 30.26 in 10.0 mi SSW 11.5 mph 18.4 mph N/A   Clear
3:53 AM 28.0 °F 19.3 °F 17.1 °F 63% 30.26 in 10.0 mi SSW 9.2 mph - N/A   Clear
4:53 AM 28.0 °F 19.3 °F 17.1 °F 63% 30.27 in 10.0 mi SSW 9.2 mph - N/A   Clear
5:53 AM 27.0 °F 18.0 °F 17.1 °F 66% 30.27 in 10.0 mi SSW 9.2 mph - N/A   Clear
6:53 AM 27.0 °F 18.0 °F 18.0 °F 69% 30.27 in 10.0 mi SSW 9.2 mph - N/A   Clear
7:53 AM 28.0 °F 17.5 °F 18.0 °F 66% 30.27 in 10.0 mi SSW 12.7 mph - N/A   Clear
8:53 AM 30.9 °F 21.7 °F 19.0 °F 61% 30.26 in 10.0 mi SSW 11.5 mph 20.7 mph N/A   Clear
9:53 AM 33.1 °F 24.4 °F 18.0 °F 54% 30.26 in 10.0 mi SSW 11.5 mph 17.3 mph N/A   Clear
10:53 AM 35.1 °F 26.4 °F 19.0 °F 52% 30.25 in 10.0 mi SSW 12.7 mph 20.7 mph N/A   Clear
11:53 AM 37.9 °F 29.2 °F 19.0 °F 47% 30.22 in 10.0 mi SSW 15.0 mph 21.9 mph N/A   Clear
12:53 PM 42.1 °F 34.9 °F 19.0 °F 40% 30.18 in 10.0 mi SSW 13.8 mph - N/A   Clear
1:53 PM 44.1 °F 37.7 °F 19.0 °F 37% 30.16 in 10.0 mi SSW 12.7 mph 23.0 mph N/A   Clear
2:53 PM 46.0 °F 39.0 °F 18.0 °F 33% 30.15 in 10.0 mi SSW 17.3 mph 24.2 mph N/A   Clear
3:53 PM 46.0 °F 39.9 °F 17.1 °F 31% 30.14 in 10.0 mi SSW 13.8 mph - N/A   Clear
4:53 PM 43.0 °F 36.8 °F 17.1 °F 35% 30.14 in 10.0 mi SSW 11.5 mph - N/A   Clear
5:53 PM 42.1 °F 36.1 °F 17.1 °F 37% 30.14 in 10.0 mi South 10.4 mph 17.3 mph N/A   Clear
6:53 PM 39.9 °F 34.5 °F 18.0 °F 41% 30.15 in 10.0 mi South 8.1 mph - N/A   Clear
7:53 PM 39.0 °F 32.8 °F 19.0 °F 45% 30.14 in 10.0 mi South 9.2 mph - N/A   Clear
8:53 PM 39.9 °F 32.5 °F 19.0 °F 43% 30.14 in 10.0 mi SSW 12.7 mph - N/A   Clear
9:53 PM 39.9 °F 31.8 °F 18.0 °F 41% 30.14 in 10.0 mi SSW 15.0 mph 20.7 mph N/A   Clear
10:53 PM 39.0 °F 31.4 °F 17.1 °F 41% 30.14 in 10.0 mi SSW 12.7 mph - N/A   Clear
11:53 PM 37.9 °F 30.5 °F 17.1 °F 43% 30.14 in 10.0 mi SSW 11.5 mph - N/A   Clear